Flight Track Log - Related Links

Times and Time Zones

All times are in EDT time to prevent confusion due to time zone crossing. See the SWA2852 flight status page for this flight to view local times or setup timezone preferences in your user account.

Time Position Orientation Groundspeed Altitude Reporting Facility
EDT Latitude Longitude Course Direction KTS MPH feet Rate Location/Type
Fri 12:27:10 AM 33.4333 -112.0333 270° West 158 182 2,200  Level Phoenix TRACON
Fri 12:27:28 AM 33.4333 -112.0500 270° West 164 189 2,700 1,692 Climbing Phoenix TRACON
Fri 12:28:28 AM 33.4167 -112.1167 253° West 234 269 4,400 2,750 Climbing Phoenix TRACON
Fri 12:29:28 AM 33.3833 -112.2000 244° Southwest 276 318 8,200 3,800 Climbing Phoenix TRACON
Fri 12:30:28 AM 33.3833 -112.3000 270° West 295 339 12,000 3,868 Climbing Phoenix TRACON
Fri 12:31:29 AM 33.4000 -112.4000 281° West 302 348 16,000 3,692 Climbing Phoenix TRACON
Fri 12:31:46 AM 33.3967 -112.4164 256° West 299 344 16,800 3,761 Climbing Los Angeles Center
Fri 12:32:36 AM 33.4089 -112.5000 280° West 299 344 20,200 2,270 Climbing Albuquerque Center
Fri 12:33:37 AM 33.4225 -112.6031 279° West 313 360 21,000 1,082 Climbing Albuquerque Center
Fri 12:34:38 AM 33.4381 -112.7144 280° West 353 406 22,400 1,869 Climbing Albuquerque Center
Fri 12:35:39 AM 33.4550 -112.8342 280° West 363 418 24,800 2,331 Climbing Albuquerque Center
Fri 12:36:39 AM 33.4794 -112.9603 283° West 381 438 27,100 2,281 Climbing Albuquerque Center
Fri 12:37:40 AM 33.5039 -113.0872 283° West 390 449 29,400 1,426 Climbing Albuquerque Center
Fri 12:38:41 AM 33.5286 -113.2150 283° West 394 453 30,000 295 Climbing Albuquerque Center
Fri 12:39:42 AM 33.5564 -113.3678 282° West 393 452 30,000  Level Albuquerque Center
Fri 12:40:43 AM 33.5808 -113.4911 283° West 386 444 30,000  Level Albuquerque Center
Fri 12:41:44 AM 33.6042 -113.6178 283° West 389 448 30,000  Level Albuquerque Center
Fri 12:42:45 AM 33.6250 -113.7314 282° West 387 445 30,000  Level Albuquerque Center
Fri 12:43:45 AM 33.6475 -113.8589 282° West 389 448 30,000  Level Albuquerque Center
Fri 12:44:46 AM 33.6717 -113.9861 283° West 391 450 30,000  Level Albuquerque Center
Fri 12:45:47 AM 33.6944 -114.1131 282° West 390 449 30,000  Level Albuquerque Center
Fri 12:46:48 AM 33.7189 -114.2542 282° West 397 457 30,000  Level Albuquerque Center
Fri 12:47:49 AM 33.7286 -114.3842 275° West 394 453 30,000  Level Albuquerque Center
Fri 12:48:20 AM 33.7336 -114.4428 276° West 396 456 30,000  Level Los Angeles Center
Fri 12:49:22 AM 33.7456 -114.6022 275° West 400 460 30,000  Level Los Angeles Center
Fri 12:50:23 AM 33.7561 -114.7322 276° West 395 455 30,000  Level Los Angeles Center
Fri 12:51:24 AM 33.7653 -114.8636 275° West 396 456 30,000  Level Los Angeles Center
Fri 12:52:26 AM 33.7756 -114.9936 275° West 394 453 30,000  Level Los Angeles Center
Fri 12:53:27 AM 33.7836 -115.1233 274° West 393 452 30,000 -541 Level Los Angeles Center
Fri 12:54:28 AM 33.7928 -115.2511 275° West 387 445 28,900 -976 Descending Los Angeles Center
Fri 12:55:30 AM 33.8033 -115.4008 275° West 377 434 28,000 -439 Descending Los Angeles Center
Fri 12:56:31 AM 33.8131 -115.5297 275° West 387 445 28,000  Level Los Angeles Center
Fri 12:57:32 AM 33.8214 -115.6578 275° West 388 447 28,000  Level Los Angeles Center
Fri 12:58:33 AM 33.8292 -115.7861 274° West 388 447 28,000  Level Los Angeles Center
Fri 12:59:35 AM 33.8381 -115.9167 275° West 394 453 28,000  Level Los Angeles Center
Fri 01:00:36 AM 33.8461 -116.0467 274° West 392 451 28,000 -443 Level Los Angeles Center
Fri 01:01:37 AM 33.8542 -116.1742 274° West 387 445 27,100 -1,756 Descending Los Angeles Center
Fri 01:02:39 AM 33.8617 -116.2914 274° West 361 415 24,400 -2,634 Descending Los Angeles Center
Fri 01:03:40 AM 33.8703 -116.4347 274° West 358 412 21,700 -2,410 Descending Los Angeles Center
Fri 01:04:41 AM 33.8761 -116.5514 273° West 352 405 19,500 -2,066 Descending Los Angeles Center
Fri 01:05:42 AM 33.8817 -116.6703 273° West 355 409 17,500 -2,146 Descending Los Angeles Center
Fri 01:06:44 AM 33.8869 -116.7889 273° West 357 411 15,100 -2,121 Descending Los Angeles Center
Fri 01:07:38 AM 33.8833 -116.9000 268° West 343 395 13,400 -2,158 Descending Southern California TRACON
Fri 01:08:38 AM 33.8667 -117.0167 260° West 365 420 11,000 -1,789 Descending Southern California TRACON
Fri 01:09:32 AM 33.8500 -117.1167 259° West 348 400 10,000 -857 Descending Southern California TRACON
Fri 01:09:48 AM 33.8428 -117.1408 250° West 352 405 10,000  Level Los Angeles Center
Fri 01:10:49 AM 33.8286 -117.2419 260° West 312 359 10,000 -492 Level Los Angeles Center
Fri 01:11:50 AM 33.8161 -117.3378 261° West 292 336 9,000 -927 Descending Los Angeles Center
Fri 01:12:52 AM 33.8008 -117.4350 259° West 295 339 8,100 -488 Descending Los Angeles Center
Fri 01:13:53 AM 33.7903 -117.5203 262° West 268 308 8,000 -492 Descending Los Angeles Center
Fri 01:14:54 AM 33.7831 -117.6047 264° West 226 260 7,100 -849 Descending Los Angeles Center
Fri 01:15:39 AM 33.7833 -117.6500 270° West 195 224 6,500 -1,027 Descending Southern California TRACON
Fri 01:16:45 AM 33.8000 -117.7167 287° West 183 211 5,200 -1,400 Descending Southern California TRACON
Fri 01:17:39 AM 33.7833 -117.7833 253° West 190 219 3,700 -1,600 Descending Southern California TRACON
Fri 01:18:45 AM 33.7500 -117.8167 220° Southwest 183 211 2,000 -1,429 Descending Southern California TRACON
Fri 01:19:45 AM 33.7167 -117.8500 220° Southwest 147 169 700 -939 Descending Southern California TRACON
Fri 01:20:40 AM 33.6833 -117.8667 203° Southwest 138 159 200 -545 Descending Southern California TRACON
Fri 01:23:00 AM 33.6757 -117.8682 132° Southeast  Level Estimated

Login

Don't have an account? Register now (free) for customized features, flight alerts, and more!